Weather History for St. Francis, KS

Change the Weather History Date:

Tuesday, March 11, 2014

  Actual Average Record
Temperature  
Mean Temperature 41 °F -  
Max Temperature 50 °F 55 °F 54 °F (2013)
Min Temperature 33 °F 26 °F 15 °F (2013)
Degree Days  
Heating Degree Days 24    
Moisture  
Dew Point 29 °F    
Average Humidity 69    
Maximum Humidity 93    
Minimum Humidity 30    
Precipitation  
Precipitation 0.00 in - - ()
Sea Level Pressure  
Sea Level Pressure 29.85 in    
Wind  
Wind Speed 13 mph (NNW)    
Max Wind Speed 28 mph    
Max Gust Speed 37 mph    
Visibility 9 miles    
Events Rain , Snow    
Averages and records for this station are not official NWS values.
T = Trace of Precipitation, MM = Missing Value Source: NWS Daily Summary

Daily Weather History Graph

Daily Weather History Graph

Search for Another Location

Airport:

Trip Planner

Search our weather history database for the weather conditions in past years. The results will help you decide how hot, cold, wet, or windy it might be!

Date:

Astronomy

Mar. 11, 2014 Rise Set
Actual Time 8:04 AM CDT 7:49 PM CDT
Civil Twilight 7:38 AM CDT 8:16 PM CDT
Nautical Twilight 7:06 AM CDT 8:48 PM CDT
Astronomical Twilight 6:35 AM CDT 9:19 PM CDT
Moon 3:28 PM CDT (3/11) 4:59 AM CDT (3/11)
Length of Visible Light 12h 38m
Length of Day
11h 45m
Waxing Gibbous, 78% of the Moon is Illuminated
Mar 11
Waxing Gibbous
Mar 16
Full
Mar 23
Last Quarter
Mar 30
New
Apr 7
First Quarter

Hourly Weather History & Observations

Time (CDT) Temp. Windchill Dew Point Humidity Pressure Visibility Wind Dir Wind Speed Gust Speed Precip Events Conditions
12:15 AM 47.3 °F - 17.8 °F 31% 29.57 in 10.0 mi SSW 5.8 mph - N/A   Clear
12:35 AM 46.9 °F - 17.6 °F 31% 29.56 in 10.0 mi SSW 4.6 mph - N/A   Clear
12:55 AM 45.9 °F 43.6 °F 18.7 °F 34% 29.54 in 10.0 mi SSE 4.6 mph - N/A   Clear
1:15 AM 46.4 °F 42.9 °F 18.1 °F 32% 29.53 in 10.0 mi South 6.9 mph - N/A   Clear
1:35 AM 46.9 °F - 17.2 °F 31% 29.52 in 10.0 mi SW 4.6 mph - N/A   Clear
1:55 AM 42.3 °F 37.9 °F 19.2 °F 40% 29.51 in 10.0 mi SW 6.9 mph - N/A   Clear
2:15 AM 46.8 °F - 16.9 °F 30% 29.50 in 10.0 mi SW 6.9 mph - N/A   Clear
2:35 AM 42.8 °F 36.6 °F 19.4 °F 39% 29.49 in 10.0 mi SW 11.5 mph - N/A   Clear
2:55 AM 42.4 °F 36.5 °F 19.0 °F 39% 29.48 in 10.0 mi SW 10.4 mph - N/A   Clear
3:15 AM 40.5 °F 32.8 °F 19.8 °F 44% 29.49 in 10.0 mi SSW 13.8 mph - N/A   Clear
3:35 AM 41.2 °F 33.7 °F 18.9 °F 41% 29.49 in 10.0 mi WSW 13.8 mph - N/A   Clear
3:55 AM 41.2 °F 35.0 °F 19.8 °F 42% 29.50 in 10.0 mi WSW 10.4 mph - N/A   Clear
4:15 AM 42.1 °F 36.6 °F 21.4 °F 44% 29.50 in 10.0 mi West 9.2 mph - N/A   Clear
4:35 AM 43.9 °F 37.5 °F 21.9 °F 42% 29.50 in 10.0 mi WNW 12.7 mph 20.7 mph N/A   Clear
4:55 AM 47.3 °F - 21.2 °F 36% 29.52 in 10.0 mi NNW 8.1 mph 25.3 mph N/A   Clear
5:15 AM 46.9 °F - 23.5 °F 40% 29.53 in 10.0 mi NNW 9.2 mph - N/A   Clear
5:35 AM 49.3 °F - 28.2 °F 44% 29.53 in 10.0 mi North 13.8 mph 19.6 mph N/A   Clear
5:55 AM 49.5 °F - 30.9 °F 49% 29.55 in 10.0 mi NNW 12.7 mph 18.4 mph N/A   Clear
6:15 AM 48.7 °F - 32.0 °F 52% 29.55 in 10.0 mi NNW 12.7 mph - N/A   Clear
6:35 AM 47.7 °F - 32.7 °F 56% 29.57 in 10.0 mi North 9.2 mph - N/A   Clear
6:55 AM 47.3 °F - 33.8 °F 59% 29.59 in 10.0 mi NNW 10.4 mph - N/A   Clear
7:15 AM 46.9 °F - 34.3 °F 62% 29.60 in 10.0 mi North 9.2 mph - N/A   Clear
7:35 AM 46.4 °F 41.5 °F 34.9 °F 64% 29.62 in 10.0 mi NNW 10.4 mph 16.1 mph N/A   Clear
7:55 AM 45.9 °F 40.0 °F 35.2 °F 66% 29.62 in 10.0 mi North 12.7 mph - N/A   Clear
8:15 AM 45.0 °F 37.6 °F 35.6 °F 70% 29.65 in 10.0 mi North 17.3 mph 24.2 mph N/A   Clear
8:35 AM 43.3 °F 35.5 °F 35.8 °F 75% 29.66 in 10.0 mi North 17.3 mph 20.7 mph N/A   Scattered Clouds
8:55 AM 43.0 °F 35.4 °F 36.5 °F 78% 29.68 in 10.0 mi North 16.1 mph 27.6 mph N/A   Overcast
9:15 AM 43.0 °F 34.8 °F 36.5 °F 78% 29.70 in 10.0 mi North 18.4 mph 29.9 mph N/A   Overcast
9:35 AM 42.8 °F 33.3 °F 36.0 °F 77% 29.71 in 10.0 mi North 24.2 mph 29.9 mph N/A   Overcast
9:55 AM 42.1 °F 31.9 °F 35.2 °F 77% 29.73 in 10.0 mi North 26.5 mph 33.4 mph N/A   Overcast
10:15 AM 41.4 °F 30.7 °F 35.4 °F 79% 29.76 in 10.0 mi North 27.6 mph 35.7 mph N/A   Overcast
10:35 AM 39.2 °F 28.7 °F 33.8 °F 81% 29.78 in 10.0 mi North 23.0 mph 31.1 mph N/A   Overcast
10:55 AM 37.8 °F 26.1 °F 32.9 °F 83% 29.80 in 10.0 mi North 26.5 mph 36.8 mph N/A   Overcast
11:15 AM 37.6 °F 26.3 °F 32.0 °F 80% 29.81 in 10.0 mi North 24.2 mph 33.4 mph N/A   Overcast
11:35 AM 37.4 °F 25.4 °F 31.6 °F 80% 29.83 in 10.0 mi North 27.6 mph 33.4 mph N/A   Overcast
11:55 AM 36.5 °F 24.9 °F 31.6 °F 83% 29.84 in 10.0 mi North 24.2 mph 34.5 mph N/A   Overcast
12:15 PM 36.7 °F 25.1 °F 31.3 °F 81% 29.86 in 10.0 mi North 24.2 mph 36.8 mph N/A   Overcast
12:35 PM 36.9 °F 24.7 °F 30.7 °F 79% 29.88 in 10.0 mi North 27.6 mph 33.4 mph N/A   Overcast
12:55 PM 36.5 °F 24.9 °F 30.9 °F 80% 29.88 in 10.0 mi North 24.2 mph 35.7 mph N/A   Overcast
1:15 PM 36.5 °F 24.7 °F 31.6 °F 83% 29.90 in 10.0 mi North 25.3 mph 32.2 mph N/A   Overcast
1:35 PM 36.9 °F 25.9 °F 31.6 °F 81% 29.91 in 10.0 mi North 21.9 mph 27.6 mph N/A   Overcast
1:55 PM 36.9 °F 25.6 °F 31.8 °F 82% 29.92 in 10.0 mi North 23.0 mph 31.1 mph N/A   Overcast
2:15 PM 36.5 °F 25.4 °F 31.8 °F 83% 29.93 in 10.0 mi North 21.9 mph 28.8 mph N/A Rain Light Rain
2:35 PM 35.1 °F 23.8 °F 32.0 °F 89% 29.95 in 3.0 mi North 20.7 mph 26.5 mph N/A Snow Light Snow
2:55 PM 35.1 °F 23.5 °F 32.5 °F 91% 29.96 in 5.0 mi North 21.9 mph 33.4 mph N/A Rain Light Rain
3:15 PM 34.3 °F 22.6 °F 32.0 °F 91% 29.98 in 3.0 mi North 21.9 mph 29.9 mph N/A Snow Light Snow
3:35 PM 34.0 °F 23.4 °F 32.0 °F 92% 30.00 in 1.8 mi North 17.3 mph 26.5 mph N/A Rain Light Rain
3:55 PM 34.9 °F 24.2 °F 32.7 °F 92% 30.01 in 5.0 mi North 18.4 mph 26.5 mph N/A   Overcast
4:15 PM 33.6 °F 20.3 °F 31.8 °F 93% 30.03 in 1.5 mi North 27.6 mph 34.5 mph N/A Snow Light Snow
4:35 PM 33.6 °F 21.9 °F 31.3 °F 91% 30.05 in 1.2 mi North 20.7 mph 33.4 mph N/A Snow Light Snow
4:55 PM 33.4 °F 22.3 °F 31.6 °F 93% 30.06 in 1.5 mi North 18.4 mph 31.1 mph N/A Snow Light Snow
5:15 PM 34.9 °F 23.3 °F 32.4 °F 91% 30.06 in 7.0 mi North 21.9 mph 29.9 mph N/A Rain Light Rain
5:35 PM 34.3 °F 22.6 °F 32.0 °F 91% 30.08 in 5.0 mi North 21.9 mph 34.5 mph N/A Rain Light Rain
5:55 PM 34.9 °F 23.3 °F 32.0 °F 89% 30.09 in 7.0 mi North 21.9 mph 34.5 mph N/A   Light Drizzle
6:15 PM 35.8 °F 24.8 °F 32.2 °F 87% 30.10 in 10.0 mi North 20.7 mph 27.6 mph N/A   Overcast
6:35 PM 36.5 °F 25.2 °F 32.2 °F 84% 30.11 in 10.0 mi North 23.0 mph 29.9 mph N/A   Overcast
6:55 PM 36.1 °F 25.0 °F 32.0 °F 85% 30.12 in 10.0 mi North 21.9 mph 27.6 mph N/A   Overcast
7:15 PM 36.5 °F 26.7 °F 31.8 °F 83% 30.13 in 10.0 mi North 17.3 mph 26.5 mph N/A   Mostly Cloudy
7:35 PM 37.0 °F 27.0 °F 31.1 °F 79% 30.15 in 10.0 mi North 18.4 mph 28.8 mph N/A   Mostly Cloudy
7:55 PM 36.7 °F 25.1 °F 30.0 °F 77% 30.17 in 10.0 mi NNW 24.2 mph 31.1 mph N/A   Mostly Cloudy
8:15 PM 36.5 °F 26.7 °F 29.1 °F 75% 30.18 in 10.0 mi North 17.3 mph 26.5 mph N/A   Scattered Clouds
8:35 PM 36.5 °F 26.7 °F 28.6 °F 73% 30.19 in 10.0 mi NNW 17.3 mph 27.6 mph N/A   Overcast
8:55 PM 35.6 °F 25.5 °F 28.0 °F 74% 30.21 in 10.0 mi NNW 17.3 mph 21.9 mph N/A   Mostly Cloudy
9:15 PM 34.7 °F 25.1 °F 27.5 °F 75% 30.22 in 10.0 mi NNW 15.0 mph - N/A   Clear
9:35 PM 34.0 °F 23.8 °F 27.1 °F 76% 30.23 in 10.0 mi NNW 16.1 mph - N/A   Clear
9:55 PM 34.2 °F 24.4 °F 27.3 °F 76% 30.24 in 10.0 mi NNW 15.0 mph - N/A   Mostly Cloudy
10:15 PM 34.5 °F 26.2 °F 26.8 °F 73% 30.25 in 10.0 mi NNW 11.5 mph 19.6 mph N/A   Scattered Clouds
10:35 PM 33.8 °F 25.3 °F 27.1 °F 77% 30.26 in 10.0 mi NNW 11.5 mph - N/A   Clear
10:55 PM 33.4 °F 24.3 °F 27.1 °F 78% 30.26 in 10.0 mi NNW 12.7 mph - N/A   Clear
11:15 PM 33.4 °F 24.8 °F 27.0 °F 77% 30.26 in 10.0 mi NW 11.5 mph - N/A   Scattered Clouds
11:35 PM 33.3 °F 23.7 °F 26.4 °F 76% 30.27 in 10.0 mi NNW 13.8 mph - N/A   Scattered Clouds
11:55 PM 33.1 °F 23.9 °F 25.3 °F 73% 30.28 in 10.0 mi NNW 12.7 mph 19.6 mph N/A   Clear